Location: Azul
(36.7830°S, 59.8500°W)
Time: 09:29:15
(UTC-03:00)

UWE-3 - Pass Details

Date: 24 October 2021
Orbit: 584 x 681 km, 97.7° (Epoch: 06 December)

Event Time Altitude Azimuth Distance (km) Brightness Sun altitude
Exits shadow 04:01:13 24° 26° (NNE) 1,288 ? -22.8°
Maximum altitude 04:03:45 70° 104° (ESE) 674 ? -22.4°
Drops below altitude 10° 04:08:12 10° 187° (S) 2,054 ? -21.6°
Sets 04:10:28 0° 189° (S) 2,988 ? -21.3°
